20040109,000009,277031,30.017333,-123.245000,16.386,33.050,NaN,NaN
20040109,000039,277061,30.016667,-123.246167,16.393,33.053,NaN,NaN
20040109,000109,277091,30.016000,-123.247500,16.404,33.056,NaN,NaN
20040109,000139,277121,30.015333,-123.248667,16.421,33.061,NaN,NaN
20040109,000209,277151,30.014833,-123.250000,16.429,33.065,NaN,NaN
20040109,000239,277181,30.014167,-123.251167,16.439,33.067,NaN,NaN
20040109,000309,277211,30.013500,-123.252500,16.455,33.072,NaN,NaN
20040109,000339,277241,30.013000,-123.253833,16.457,33.074,NaN,NaN
20040109,000409,277271,30.012333,-123.255167,16.462,33.075,NaN,NaN
20040109,000439,277301,30.011667,-123.256500,16.461,33.076,NaN,NaN
20040109,000509,277331,30.011000,-123.257667,16.460,33.075,NaN,NaN
20040109,000539,277361,30.010500,-123.259000,16.455,33.074,NaN,NaN
20040109,000609,277391,30.009833,-123.260333,16.453,33.074,NaN,NaN
20040109,000639,277421,30.009167,-123.261500,16.452,33.073,NaN,NaN
20040109,000709,277451,30.008667,-123.262833,16.454,33.074,NaN,NaN
20040109,000739,277481,30.008000,-123.264167,16.456,33.075,NaN,NaN
20040109,000809,277511,30.007333,-123.265333,16.468,33.075,NaN,NaN
20040109,000839,277541,30.006833,-123.266667,16.477,33.079,NaN,NaN
20040109,000909,277571,30.006167,-123.268000,16.485,33.080,NaN,NaN
20040109,000939,277601,30.005500,-123.269167,16.503,33.086,NaN,NaN
20040109,001009,277631,30.005000,-123.270500,16.513,33.088,NaN,NaN
20040109,001039,277661,30.004333,-123.271833,16.520,33.092,NaN,NaN
20040109,001109,277691,30.003833,-123.273000,16.539,33.096,NaN,NaN
20040109,001139,277721,30.003167,-123.274167,16.575,33.104,NaN,NaN
20040109,001209,277751,30.002500,-123.275500,16.601,33.116,NaN,NaN
20040109,001239,277781,30.002000,-123.276833,16.623,33.120,NaN,NaN
20040109,001309,277811,30.001333,-123.278000,16.634,33.124,NaN,NaN
20040109,001339,277841,30.000667,-123.279333,16.662,33.131,NaN,NaN
20040109,001409,277871,30.000167,-123.280667,16.692,33.140,NaN,NaN
20040109,001439,277901,29.999500,-123.281833,16.700,33.146,NaN,NaN
20040109,001509,277931,29.999000,-123.283167,16.723,33.151,NaN,NaN
20040109,001539,277961,29.998333,-123.284500,16.733,33.158,NaN,NaN
20040109,001609,277991,29.997667,-123.285667,16.738,33.159,NaN,NaN
20040109,001639,278021,29.997000,-123.287000,16.743,33.160,NaN,NaN
20040109,001709,278051,29.996500,-123.288333,16.748,33.162,NaN,NaN
20040109,001739,278081,29.995833,-123.289667,16.753,33.163,NaN,NaN
20040109,001809,278111,29.995167,-123.290833,16.754,33.165,NaN,NaN
20040109,001839,278141,29.994667,-123.292167,16.756,33.164,NaN,NaN
20040109,001909,278171,29.994000,-123.293333,16.755,33.164,NaN,NaN
20040109,001939,278201,29.993333,-123.294667,16.755,33.163,NaN,NaN
20040109,002009,278231,29.992833,-123.296000,16.754,33.163,NaN,NaN
20040109,002039,278261,29.992167,-123.297333,16.752,33.162,NaN,NaN
20040109,002109,278291,29.991500,-123.298667,16.751,33.161,NaN,NaN
20040109,002139,278321,29.991000,-123.299833,16.749,33.160,NaN,NaN
20040109,002209,278351,29.990333,-123.301167,16.746,33.160,NaN,NaN
20040109,002239,278381,29.989667,-123.302500,16.746,33.160,NaN,NaN
20040109,002309,278411,29.989167,-123.303833,16.744,33.159,NaN,NaN
20040109,002339,278441,29.988500,-123.305000,16.740,33.158,NaN,NaN
20040109,002409,278471,29.988000,-123.306333,16.732,33.155,NaN,NaN
20040109,002439,278501,29.987333,-123.307667,16.731,33.153,NaN,NaN
20040109,002509,278531,29.986833,-123.308833,16.733,33.154,NaN,NaN
20040109,002539,278561,29.986167,-123.310167,16.726,33.153,NaN,NaN
20040109,002609,278591,29.985500,-123.311500,16.720,33.149,NaN,NaN
20040109,002639,278621,29.985000,-123.312833,16.718,33.148,NaN,NaN
20040109,002709,278651,29.984333,-123.314000,16.712,33.148,NaN,NaN
20040109,002739,278681,29.983667,-123.315333,16.704,33.144,NaN,NaN
20040109,002809,278711,29.983167,-123.316667,16.695,33.143,NaN,NaN
20040109,002839,278741,29.982500,-123.318000,16.687,33.141,NaN,NaN
20040109,002909,278771,29.981833,-123.319167,16.685,33.137,NaN,NaN
20040109,002939,278801,29.981167,-123.320500,16.712,33.144,NaN,NaN
20040109,003009,278831,29.980667,-123.321833,16.734,33.151,NaN,NaN
20040109,003039,278861,29.980000,-123.323000,16.747,33.154,NaN,NaN
20040109,003109,278891,29.979333,-123.324333,16.757,33.158,NaN,NaN
20040109,003139,278921,29.978833,-123.325500,16.764,33.160,NaN,NaN
20040109,003209,278951,29.978167,-123.326833,16.771,33.161,NaN,NaN
20040109,003239,278981,29.977500,-123.328000,16.778,33.161,NaN,NaN
20040109,003309,279011,29.976833,-123.329333,16.779,33.162,NaN,NaN
20040109,003339,279041,29.976333,-123.330500,16.780,33.161,NaN,NaN
20040109,003409,279071,29.975667,-123.331833,16.780,33.160,NaN,NaN
20040109,003439,279101,29.975167,-123.333167,16.779,33.159,NaN,NaN
20040109,003509,279131,29.974500,-123.334333,16.780,33.159,NaN,NaN
20040109,003539,279161,29.973833,-123.335667,16.779,33.157,NaN,NaN
20040109,003609,279191,29.973333,-123.336833,16.778,33.157,NaN,NaN
20040109,003639,279221,29.972667,-123.338167,16.776,33.157,NaN,NaN
20040109,003709,279251,29.972167,-123.339500,16.775,33.155,NaN,NaN
20040109,003739,279281,29.971500,-123.340667,16.771,33.153,NaN,NaN
20040109,003809,279311,29.970833,-123.342000,16.771,33.152,NaN,NaN
20040109,003839,279341,29.970333,-123.343333,16.769,33.153,NaN,NaN
20040109,003909,279371,29.969667,-123.344500,16.772,33.152,NaN,NaN
20040109,003939,279401,29.969000,-123.345833,16.771,33.153,NaN,NaN
20040109,004009,279431,29.968333,-123.347167,16.771,33.151,NaN,NaN
20040109,004039,279461,29.967833,-123.348500,16.773,33.152,NaN,NaN
20040109,004109,279491,29.967167,-123.349667,16.776,33.152,NaN,NaN
20040109,004139,279521,29.966500,-123.351000,16.778,33.153,NaN,NaN
20040109,004209,279551,29.965833,-123.352333,16.776,33.155,NaN,NaN
20040109,004239,279581,29.965333,-123.353500,16.773,33.153,NaN,NaN
20040109,004309,279611,29.964667,-123.354833,16.768,33.152,NaN,NaN
20040109,004339,279641,29.964167,-123.356167,16.763,33.151,NaN,NaN
20040109,004409,279671,29.963500,-123.357500,16.755,33.148,NaN,NaN
20040109,004439,279701,29.962833,-123.358833,16.752,33.146,NaN,NaN
20040109,004509,279731,29.962167,-123.360000,16.748,33.144,NaN,NaN
20040109,004539,279761,29.961667,-123.361333,16.742,33.142,NaN,NaN
20040109,004609,279791,29.961000,-123.362667,16.737,33.139,NaN,NaN
20040109,004639,279821,29.960333,-123.363833,16.732,33.136,NaN,NaN
20040109,004709,279851,29.959667,-123.365167,16.729,33.134,NaN,NaN
20040109,004739,279881,29.959167,-123.366500,16.726,33.133,NaN,NaN
20040109,004809,279911,29.958500,-123.367833,16.723,33.131,NaN,NaN
20040109,004839,279941,29.957833,-123.369167,16.719,33.129,NaN,NaN
20040109,004909,279971,29.957167,-123.370500,16.715,33.128,NaN,NaN
20040109,004939,280001,29.956667,-123.371667,16.713,33.126,NaN,NaN
20040109,005009,280031,29.956000,-123.373000,16.710,33.125,NaN,NaN
20040109,005039,280061,29.955333,-123.374167,16.708,33.125,NaN,NaN
20040109,005109,280091,29.954833,-123.375500,16.705,33.124,NaN,NaN
20040109,005139,280121,29.954167,-123.376833,16.704,33.123,NaN,NaN
20040109,005209,280151,29.953667,-123.378167,16.703,33.120,NaN,NaN
20040109,005239,280181,29.953000,-123.379500,16.700,33.119,NaN,NaN
20040109,005309,280211,29.952333,-123.380667,16.696,33.118,NaN,NaN
20040109,005339,280241,29.951667,-123.382000,16.694,33.116,NaN,NaN
20040109,005409,280271,29.951167,-123.383333,16.693,33.114,NaN,NaN
20040109,005439,280301,29.950500,-123.384667,16.693,33.112,NaN,NaN
20040109,005509,280331,29.949833,-123.385833,16.693,33.112,NaN,NaN
20040109,005539,280361,29.949333,-123.387167,16.692,33.111,NaN,NaN
20040109,005609,280391,29.948667,-123.388500,16.692,33.111,NaN,NaN
20040109,005639,280421,29.948167,-123.389667,16.693,33.111,NaN,NaN
20040109,005709,280451,29.947500,-123.391000,16.691,33.111,NaN,NaN
20040109,005739,280481,29.946833,-123.392333,16.691,33.111,NaN,NaN
20040109,005809,280511,29.946333,-123.393667,16.693,33.112,NaN,NaN
20040109,005839,280541,29.945667,-123.395000,16.696,33.111,NaN,NaN
20040109,005909,280571,29.945167,-123.396167,16.696,33.111,NaN,NaN
20040109,005939,280601,29.944500,-123.397500,16.697,33.112,NaN,NaN
20040109,010009,280631,29.944000,-123.398833,16.699,33.112,NaN,NaN
20040109,010039,280661,29.943333,-123.400167,16.697,33.112,NaN,NaN
20040109,010109,280691,29.942833,-123.401333,16.696,33.112,NaN,NaN
20040109,010139,280721,29.942167,-123.402667,16.693,33.112,NaN,NaN
20040109,010209,280751,29.941667,-123.404000,16.692,33.112,NaN,NaN
20040109,010239,280781,29.941000,-123.405167,16.689,33.112,NaN,NaN
20040109,010309,280811,29.940500,-123.406500,16.688,33.111,NaN,NaN
20040109,010339,280841,29.939833,-123.407833,16.689,33.111,NaN,NaN
20040109,010409,280871,29.939333,-123.409167,16.690,33.112,NaN,NaN
20040109,010439,280901,29.938667,-123.410500,16.693,33.113,NaN,NaN
20040109,010509,280931,29.938167,-123.411667,16.699,33.116,NaN,NaN
20040109,010539,280961,29.937500,-123.413000,16.711,33.120,NaN,NaN
20040109,010609,280991,29.937000,-123.414333,16.736,33.130,NaN,NaN
20040109,010639,281021,29.936500,-123.415667,16.739,33.136,NaN,NaN
20040109,010709,281051,29.935833,-123.417000,16.747,33.139,NaN,NaN
20040109,010739,281081,29.935167,-123.418333,16.754,33.143,NaN,NaN
20040109,010809,281111,29.934667,-123.419667,16.751,33.144,NaN,NaN
20040109,010839,281141,29.934000,-123.421000,16.754,33.147,NaN,NaN
20040109,010909,281171,29.933500,-123.422333,16.767,33.151,NaN,NaN
20040109,010939,281201,29.932833,-123.423500,16.777,33.155,NaN,NaN
20040109,011009,281231,29.932167,-123.424833,16.779,33.159,NaN,NaN
20040109,011039,281261,29.931667,-123.426167,16.779,33.159,NaN,NaN
20040109,011109,281291,29.931000,-123.427500,16.778,33.160,NaN,NaN
20040109,011139,281321,29.930333,-123.428833,16.778,33.161,NaN,NaN
20040109,011209,281351,29.929833,-123.430000,16.781,33.161,NaN,NaN
20040109,011239,281381,29.929167,-123.431333,16.790,33.162,NaN,NaN
20040109,011309,281411,29.928500,-123.432500,16.798,33.163,NaN,NaN
20040109,011339,281441,29.927833,-123.433833,16.800,33.163,NaN,NaN
20040109,011409,281471,29.927333,-123.435167,16.797,33.163,NaN,NaN
20040109,011439,281501,29.926667,-123.436333,16.784,33.159,NaN,NaN
20040109,011509,281531,29.926000,-123.437500,16.771,33.153,NaN,NaN
20040109,011539,281561,29.925333,-123.438833,16.754,33.152,NaN,NaN
20040109,011609,281591,29.924500,-123.440000,16.742,33.147,NaN,NaN
20040109,011639,281621,29.923833,-123.441333,16.740,33.143,NaN,NaN
20040109,011709,281651,29.923333,-123.442500,16.749,33.146,NaN,NaN
20040109,011739,281681,29.922667,-123.443667,16.770,33.153,NaN,NaN
20040109,011809,281711,29.922000,-123.444833,16.783,33.159,NaN,NaN
20040109,011839,281741,29.921333,-123.446000,16.787,33.162,NaN,NaN
20040109,011909,281771,29.920667,-123.447167,16.787,33.163,NaN,NaN
20040109,011939,281801,29.920000,-123.448500,16.786,33.160,NaN,NaN
20040109,012009,281831,29.919333,-123.449667,16.781,33.159,NaN,NaN
20040109,012039,281861,29.918667,-123.450833,16.779,33.158,NaN,NaN
20040109,012109,281891,29.918000,-123.452000,16.777,33.157,NaN,NaN
20040109,012139,281921,29.917333,-123.453167,16.776,33.156,NaN,NaN
20040109,012209,281951,29.916667,-123.454333,16.774,33.156,NaN,NaN
20040109,012239,281981,29.916000,-123.455500,16.774,33.155,NaN,NaN
20040109,012309,282011,29.915500,-123.456833,16.773,33.155,NaN,NaN
20040109,012339,282041,29.914833,-123.458000,16.773,33.154,NaN,NaN
20040109,012409,282071,29.914167,-123.459167,16.770,33.153,NaN,NaN
20040109,012439,282101,29.913500,-123.460333,16.769,33.154,NaN,NaN
20040109,012509,282131,29.912833,-123.461500,16.769,33.153,NaN,NaN
20040109,012539,282161,29.912167,-123.462667,16.767,33.154,NaN,NaN
20040109,012609,282191,29.911500,-123.463833,16.768,33.153,NaN,NaN
20040109,012639,282221,29.911000,-123.465167,16.766,33.153,NaN,NaN
20040109,012709,282251,29.910333,-123.466333,16.767,33.153,NaN,NaN
20040109,012739,282281,29.909667,-123.467500,16.768,33.153,NaN,NaN
20040109,012809,282311,29.909000,-123.468667,16.770,33.153,NaN,NaN
20040109,012839,282341,29.908333,-123.469833,16.770,33.154,NaN,NaN
20040109,012909,282371,29.907667,-123.471000,16.772,33.153,NaN,NaN
20040109,012939,282401,29.907000,-123.472167,16.773,33.154,NaN,NaN
20040109,013009,282431,29.906333,-123.473333,16.773,33.155,NaN,NaN
20040109,013039,282461,29.905667,-123.474500,16.772,33.155,NaN,NaN
20040109,013109,282491,29.905000,-123.475833,16.773,33.155,NaN,NaN
20040109,013139,282521,29.904333,-123.477000,16.773,33.155,NaN,NaN
20040109,013209,282551,29.903833,-123.478167,16.772,33.155,NaN,NaN
20040109,013239,282581,29.903167,-123.479333,16.770,33.155,NaN,NaN
20040109,013309,282611,29.902500,-123.480500,16.768,33.155,NaN,NaN
20040109,013339,282641,29.901833,-123.481667,16.766,33.154,NaN,NaN
20040109,013409,282671,29.901167,-123.482833,16.764,33.153,NaN,NaN
20040109,013439,282701,29.900667,-123.484000,16.764,33.152,NaN,NaN
20040109,013509,282731,29.900000,-123.485167,16.762,33.150,NaN,NaN
20040109,013539,282761,29.899333,-123.486333,16.758,33.148,NaN,NaN
20040109,013609,282791,29.898667,-123.487500,16.746,33.142,NaN,NaN
20040109,013639,282821,29.898167,-123.488667,16.740,33.138,NaN,NaN
20040109,013709,282851,29.897500,-123.489833,16.735,33.136,NaN,NaN
20040109,013739,282881,29.896833,-123.491000,16.732,33.132,NaN,NaN
20040109,013809,282911,29.896167,-123.492167,16.728,33.130,NaN,NaN
20040109,013839,282941,29.895500,-123.493333,16.724,33.128,NaN,NaN
20040109,013909,282971,29.895000,-123.494500,16.723,33.128,NaN,NaN
20040109,013939,283001,29.894333,-123.495833,16.720,33.127,NaN,NaN
20040109,014009,283031,29.893667,-123.496833,16.717,33.125,NaN,NaN
20040109,014039,283061,29.893000,-123.498000,16.714,33.123,NaN,NaN
20040109,014109,283091,29.892333,-123.499167,16.713,33.123,NaN,NaN
20040109,014139,283121,29.891667,-123.500333,16.712,33.121,NaN,NaN
20040109,014209,283151,29.890833,-123.501500,16.710,33.121,NaN,NaN
20040109,014239,283181,29.890167,-123.502667,16.709,33.120,NaN,NaN
20040109,014309,283211,29.889500,-123.503833,16.706,33.120,NaN,NaN
20040109,014339,283241,29.888833,-123.505000,16.705,33.118,NaN,NaN
20040109,014409,283271,29.888167,-123.506167,16.705,33.117,NaN,NaN
20040109,014439,283301,29.887500,-123.507333,16.703,33.116,NaN,NaN
20040109,014509,283331,29.886833,-123.508500,16.701,33.116,NaN,NaN
20040109,014539,283361,29.886167,-123.509667,16.699,33.116,NaN,NaN
20040109,014609,283391,29.885500,-123.510833,16.697,33.116,NaN,NaN
20040109,014639,283421,29.884833,-123.512000,16.696,33.114,NaN,NaN
20040109,014709,283451,29.884167,-123.513167,16.696,33.114,NaN,NaN
20040109,014739,283481,29.883500,-123.514333,16.695,33.114,NaN,NaN
20040109,014809,283511,29.882833,-123.515500,16.695,33.113,NaN,NaN
20040109,014839,283541,29.882167,-123.516667,16.694,33.113,NaN,NaN
20040109,014909,283571,29.881500,-123.517833,16.693,33.113,NaN,NaN
20040109,014939,283601,29.880667,-123.519000,16.693,33.112,NaN,NaN
20040109,015009,283631,29.880000,-123.520167,16.693,33.112,NaN,NaN
20040109,015039,283661,29.879333,-123.521333,16.693,33.112,NaN,NaN
20040109,015109,283691,29.878667,-123.522500,16.692,33.112,NaN,NaN
20040109,015139,283721,29.878167,-123.523833,16.690,33.112,NaN,NaN
20040109,015209,283751,29.877500,-123.525000,16.689,33.112,NaN,NaN
20040109,015239,283781,29.876833,-123.526167,16.689,33.112,NaN,NaN
20040109,015309,283811,29.876167,-123.527333,16.687,33.112,NaN,NaN
20040109,015339,283841,29.875500,-123.528667,16.687,33.112,NaN,NaN
20040109,015409,283871,29.875000,-123.529833,16.689,33.111,NaN,NaN
20040109,015439,283901,29.874333,-123.531167,16.689,33.112,NaN,NaN
20040109,015509,283931,29.873667,-123.532333,16.688,33.112,NaN,NaN
20040109,015539,283961,29.873167,-123.533667,16.687,33.112,NaN,NaN
20040109,015609,283991,29.872500,-123.535000,16.686,33.113,NaN,NaN
20040109,015639,284021,29.872000,-123.536167,16.685,33.112,NaN,NaN
20040109,015709,284051,29.871333,-123.537500,16.685,33.112,NaN,NaN
20040109,015739,284081,29.870833,-123.538833,16.683,33.112,NaN,NaN
20040109,015809,284111,29.870167,-123.540000,16.684,33.112,NaN,NaN
20040109,015839,284141,29.869667,-123.541333,16.686,33.113,NaN,NaN
20040109,015909,284171,29.869000,-123.542500,16.688,33.114,NaN,NaN
20040109,015939,284201,29.868333,-123.543833,16.690,33.115,NaN,NaN
20040109,020009,284231,29.867833,-123.545167,16.691,33.117,NaN,NaN
20040109,020039,284261,29.867167,-123.546333,16.691,33.117,NaN,NaN
20040109,020109,284291,29.866500,-123.547667,16.690,33.118,NaN,NaN
20040109,020139,284321,29.866000,-123.548833,16.690,33.118,NaN,NaN
20040109,020209,284351,29.865500,-123.550167,16.690,33.119,NaN,NaN
20040109,020239,284381,29.864833,-123.551333,16.694,33.120,NaN,NaN
20040109,020309,284411,29.864167,-123.552667,16.693,33.121,NaN,NaN
20040109,020339,284441,29.863667,-123.553833,16.693,33.122,NaN,NaN
20040109,020409,284471,29.863000,-123.555167,16.694,33.123,NaN,NaN
20040109,020439,284501,29.862500,-123.556500,16.698,33.125,NaN,NaN
20040109,020509,284531,29.861833,-123.557833,16.700,33.125,NaN,NaN
20040109,020539,284561,29.861333,-123.559000,16.698,33.126,NaN,NaN
20040109,020609,284591,29.860667,-123.560333,16.698,33.126,NaN,NaN
20040109,020639,284621,29.860167,-123.561667,16.696,33.126,NaN,NaN
20040109,020709,284651,29.859500,-123.563000,16.693,33.126,NaN,NaN
20040109,020739,284681,29.858833,-123.564167,16.691,33.125,NaN,NaN
20040109,020809,284711,29.858333,-123.565500,16.688,33.124,NaN,NaN
20040109,020839,284741,29.857667,-123.566667,16.687,33.125,NaN,NaN
20040109,020909,284771,29.857167,-123.568000,16.685,33.125,NaN,NaN
20040109,020939,284801,29.856500,-123.569167,16.684,33.125,NaN,NaN
20040109,021009,284831,29.856000,-123.570500,16.684,33.125,NaN,NaN
20040109,021039,284861,29.855333,-123.571833,16.685,33.125,NaN,NaN
20040109,021109,284891,29.854833,-123.573000,16.685,33.126,NaN,NaN
20040109,021139,284921,29.854167,-123.574333,16.685,33.127,NaN,NaN
20040109,021209,284951,29.853500,-123.575667,16.687,33.128,NaN,NaN
20040109,021239,284981,29.853000,-123.576833,16.687,33.129,NaN,NaN
20040109,021309,285011,29.852333,-123.578167,16.690,33.130,NaN,NaN
20040109,021339,285041,29.851833,-123.579333,16.691,33.131,NaN,NaN
20040109,021409,285071,29.851167,-123.580667,16.694,33.131,NaN,NaN
20040109,021439,285101,29.850500,-123.581833,16.694,33.133,NaN,NaN
20040109,021509,285131,29.850000,-123.582833,16.694,33.135,NaN,NaN
20040109,021539,285161,29.849667,-123.583500,16.696,33.135,NaN,NaN
20040109,021609,285191,29.849333,-123.583667,16.697,33.135,NaN,NaN
20040109,021639,285221,29.849000,-123.583667,16.696,33.136,NaN,NaN
20040109,021709,285251,29.848833,-123.583667,16.695,33.136,NaN,NaN
20040109,021739,285281,29.848833,-123.583500,16.696,33.135,NaN,NaN
20040109,021809,285311,29.848667,-123.583500,16.696,33.136,NaN,NaN
20040109,021839,285341,29.848500,-123.583500,16.698,33.135,NaN,NaN
20040109,021909,285371,29.848500,-123.583500,16.697,33.136,NaN,NaN
20040109,021939,285401,29.848500,-123.583500,16.697,33.135,NaN,NaN
20040109,022009,285431,29.848500,-123.583500,16.697,33.135,NaN,NaN
20040109,022039,285461,29.848333,-123.583500,16.696,33.136,NaN,NaN
20040109,022109,285491,29.848333,-123.583333,16.695,33.136,NaN,NaN
20040109,022139,285521,29.848333,-123.583333,16.694,33.136,NaN,NaN
20040109,022209,285551,29.848333,-123.583500,16.693,33.136,NaN,NaN
20040109,022239,285581,29.848167,-123.583500,16.691,33.136,NaN,NaN
20040109,022309,285611,29.848167,-123.583500,16.692,33.135,NaN,NaN
20040109,022339,285641,29.848167,-123.583500,16.693,33.135,NaN,NaN
20040109,022409,285671,29.848167,-123.583500,16.693,33.135,NaN,NaN
20040109,022439,285701,29.848167,-123.583333,16.695,33.136,NaN,NaN
20040109,022509,285731,29.848167,-123.583333,16.694,33.136,NaN,NaN
20040109,022539,285761,29.848167,-123.583333,16.694,33.135,NaN,NaN
20040109,022609,285791,29.848167,-123.583333,16.694,33.135,NaN,NaN
20040109,022639,285821,29.848167,-123.583333,16.693,33.135,NaN,NaN
20040109,022709,285851,29.848000,-123.583333,16.692,33.135,NaN,NaN
20040109,022739,285881,29.848000,-123.583333,16.691,33.136,NaN,NaN
20040109,022809,285911,29.848000,-123.583167,16.691,33.136,NaN,NaN
20040109,022839,285941,29.848000,-123.583167,16.691,33.135,NaN,NaN
20040109,022909,285971,29.848167,-123.583167,16.690,33.136,NaN,NaN
20040109,022939,286001,29.848167,-123.583167,16.690,33.136,NaN,NaN
20040109,023009,286031,29.848167,-123.583167,16.690,33.136,NaN,NaN
20040109,023039,286061,29.848167,-123.583000,16.691,33.135,NaN,NaN
20040109,023109,286091,29.848167,-123.583000,16.693,33.135,NaN,NaN
20040109,023139,286121,29.848167,-123.582833,16.693,33.136,NaN,NaN
20040109,023209,286151,29.848167,-123.582833,16.693,33.135,NaN,NaN
20040109,023239,286181,29.848167,-123.582833,16.694,33.135,NaN,NaN
20040109,023309,286211,29.848167,-123.582833,16.694,33.135,NaN,NaN
20040109,023339,286241,29.848167,-123.582833,16.694,33.135,NaN,NaN
20040109,023409,286271,29.848167,-123.582833,16.694,33.135,NaN,NaN
20040109,023439,286301,29.848000,-123.582833,16.693,33.135,NaN,NaN
20040109,023509,286331,29.848000,-123.582833,16.694,33.135,NaN,NaN
20040109,023539,286361,29.848000,-123.582833,16.695,33.135,NaN,NaN
20040109,023609,286391,29.848000,-123.582667,16.694,33.135,NaN,NaN
20040109,023639,286421,29.847833,-123.582667,16.690,33.136,NaN,NaN
20040109,023709,286451,29.847833,-123.582667,16.690,33.135,NaN,NaN
20040109,023739,286481,29.847833,-123.582667,16.690,33.135,NaN,NaN
20040109,023809,286511,29.847833,-123.582667,16.688,33.135,NaN,NaN
20040109,023839,286541,29.847833,-123.582667,16.688,33.135,NaN,NaN
20040109,023909,286571,29.847833,-123.582667,16.689,33.135,NaN,NaN
20040109,023939,286601,29.847833,-123.582667,16.688,33.135,NaN,NaN
20040109,024009,286631,29.847833,-123.582667,16.689,33.134,NaN,NaN
20040109,024039,286661,29.847833,-123.582667,16.688,33.135,NaN,NaN
20040109,024109,286691,29.847667,-123.582500,16.689,33.135,NaN,NaN
20040109,024139,286721,29.847667,-123.582500,16.690,33.134,NaN,NaN
20040109,024209,286751,29.847667,-123.582500,16.689,33.135,NaN,NaN
20040109,024239,286781,29.847667,-123.582500,16.688,33.135,NaN,NaN
20040109,024309,286811,29.847667,-123.582500,16.690,33.134,NaN,NaN
20040109,024339,286841,29.847667,-123.582500,16.690,33.135,NaN,NaN
20040109,024409,286871,29.847667,-123.582500,16.691,33.135,NaN,NaN
20040109,024439,286901,29.847667,-123.582500,16.690,33.135,NaN,NaN
20040109,024509,286931,29.847667,-123.582333,16.690,33.135,NaN,NaN
20040109,024539,286961,29.847500,-123.582333,16.688,33.135,NaN,NaN
20040109,024609,286991,29.847500,-123.582333,16.688,33.135,NaN,NaN
20040109,024639,287021,29.847500,-123.582333,16.686,33.135,NaN,NaN
20040109,024709,287051,29.847500,-123.582333,16.685,33.135,NaN,NaN
20040109,024739,287081,29.847500,-123.582333,16.684,33.135,NaN,NaN
20040109,024809,287111,29.847500,-123.582333,16.685,33.135,NaN,NaN
20040109,024839,287141,29.847500,-123.582333,16.684,33.135,NaN,NaN
20040109,024909,287171,29.847500,-123.582333,16.683,33.134,NaN,NaN
20040109,024939,287201,29.847500,-123.582333,16.684,33.134,NaN,NaN
20040109,025009,287231,29.847500,-123.582333,16.686,33.135,NaN,NaN
20040109,025039,287261,29.847500,-123.582167,16.687,33.135,NaN,NaN
20040109,025109,287291,29.847500,-123.582167,16.688,33.135,NaN,NaN
20040109,025139,287321,29.847500,-123.582167,16.687,33.134,NaN,NaN
20040109,025209,287351,29.847500,-123.582167,16.686,33.134,NaN,NaN
20040109,025239,287381,29.847500,-123.582167,16.687,33.135,NaN,NaN
20040109,025309,287411,29.847500,-123.582167,16.688,33.134,NaN,NaN
20040109,025339,287441,29.847500,-123.582167,16.688,33.135,NaN,NaN
20040109,025409,287471,29.847500,-123.582167,16.688,33.134,NaN,NaN
20040109,025439,287501,29.847500,-123.582167,16.688,33.135,NaN,NaN
20040109,025509,287531,29.847333,-123.582167,16.689,33.134,NaN,NaN
20040109,025539,287561,29.847333,-123.582000,16.688,33.135,NaN,NaN